User: anonymous   Login
Location: Unspecified
(0.0000°N, 0.0000°E)
Time: 00:24:14
(UTC+00:00)
Language:

EDUSAT - Orbit

View from above orbital plane
View from above orbital plane
View from above satellite
View from above satellite

Ground track
Ground track

The orbit data is extracted from the following two-line orbital elements,

1 37788U 11044A   17231.84628080  .00000120  00000-0  28171-4 0  9999
2 37788  98.2562 351.5768 0037085 244.9135 271.3099 14.70715491322246
Epoch (UTC): 19 August 2017 20:18:38
Eccentricity: 0.0037085
inclination: 98.2562°
perigee height: 632 km
apogee height: 685 km
right ascension of ascending node: 351.5768°
argument of perigee: 244.9135°
revolutions per day: 14.70715491
mean anomaly at epoch: 271.3099°
orbit number at epoch: 32224

The dashed part of the orbit path shows where the satellite is in the earth's shadow,  

DLR